Weather History for Bloomington, IN

Change the Weather History Date:

Saturday, January 2, 1999

  Actual Average Record
Temperature  
Mean Temperature 26 °F 29 °F  
Max Temperature 34 °F 38 °F 66 °F (2006)
Min Temperature 18 °F 21 °F 1 °F (2001)
Degree Days  
Heating Degree Days 38 36  
Month to date heating degree days 72  
Since 1 July heating degree days 2145  
Cooling Degree Days 0 0  
Month to date cooling degree days 0  
Year to date cooling degree days 0  
Moisture  
Dew Point 23 °F    
Average Humidity 91    
Maximum Humidity 100    
Minimum Humidity 74    
Precipitation  
Precipitation 1.01 in 0.13 in 1.01 in (1999)
Month to date precipitation 0.27  
Year to date precipitation 0.27  
Sea Level Pressure  
Sea Level Pressure 29.77 in    
Wind  
Wind Speed 15 mph (ESE)    
Max Wind Speed 21 mph    
Max Gust Speed 28 mph    
Visibility 3 miles    
Events Fog , Rain , Snow    
T = Trace of Precipitation, MM = Missing Value Source: NWS Daily Summary

Daily Weather History Graph

Daily Weather History Graph

Search for Another Location

Airport:

Trip Planner

Search our weather history database for the weather conditions in past years. The results will help you decide how hot, cold, wet, or windy it might be!

Date:

Astronomy

Jan. 02, 1999 Rise Set
Actual Time 8:05 AM EST 5:35 PM EST
Civil Twilight 7:36 AM EST 6:05 PM EST
Nautical Twilight 7:02 AM EST 6:38 PM EST
Astronomical Twilight 6:30 AM EST 7:11 PM EST
Moon 6:33 PM EST (1/2) 8:19 AM EST (1/2)
Length of Visible Light 10h 29m
Length of Day
9h 29m
Full, 100% of the Moon is Illuminated
Jan 2
Full
Jan 9
Last Quarter
Jan 17
New
Jan 24
First Quarter
Jan 31
Full

Hourly Weather History & Observations

Time (EST) Temp. Windchill Dew Point Humidity Pressure Visibility Wind Dir Wind Speed Gust Speed Precip Events Conditions
12:19 AM 19.4 °F 5.5 °F 15.8 °F 86% 30.14 in 1.2 mi ESE 15.0 mph - 0.00 in Snow Light Snow
12:28 AM 19.4 °F 6.0 °F 15.8 °F 86% 30.13 in 1.0 mi East 13.8 mph - 0.01 in Snow Light Snow
12:41 AM 19.4 °F 4.1 °F 17.6 °F 93% 30.11 in 1.0 mi ESE 18.4 mph 23.0 mph 0.01 in Snow Light Snow
12:53 AM 19.9 °F 5.7 °F 17.1 °F 89% 30.14 in 0.8 mi East 16.1 mph - 0.01 in Snow Light Snow
1:17 AM 19.4 °F 3.6 °F 17.6 °F 93% 30.07 in 0.5 mi East 19.6 mph 26.5 mph 0.01 in Fog , Snow Snow
1:53 AM 19.9 °F 5.2 °F 17.1 °F 89% 30.10 in 0.8 mi East 17.3 mph - 0.03 in Snow Light Snow
2:53 AM 19.9 °F 5.2 °F 18.0 °F 92% 30.06 in 0.8 mi East 17.3 mph 27.6 mph 0.02 in Snow Light Snow
3:09 AM 19.4 °F 5.0 °F 17.6 °F 93% 30.02 in 1.0 mi ESE 16.1 mph 24.2 mph 0.01 in Snow Light Snow
3:20 AM 21.2 °F 6.8 °F 17.6 °F 86% 30.02 in 3.0 mi ESE 17.3 mph 26.5 mph 0.02 in Snow Light Snow
3:45 AM 21.2 °F 6.4 °F 17.6 °F 86% 30.00 in 3.0 mi ESE 18.4 mph - 0.04 in Rain Light Freezing Rain
3:53 AM 21.0 °F 6.2 °F 18.0 °F 88% 30.03 in 3.0 mi ESE 18.4 mph 24.2 mph 0.05 in Rain Light Freezing Rain
3:57 AM 21.2 °F 6.8 °F 17.6 °F 86% 29.99 in 4.0 mi East 17.3 mph 24.2 mph 0.01 in Rain Light Freezing Rain
4:53 AM 21.0 °F 6.2 °F 18.0 °F 88% 29.98 in 2.5 mi East 18.4 mph - 0.09 in Rain Light Freezing Rain
5:53 AM 21.9 °F 8.7 °F 19.9 °F 92% 29.92 in 2.5 mi East 15.0 mph 24.2 mph 0.10 in Rain Light Freezing Rain
6:12 AM 21.2 °F 7.8 °F 19.4 °F 93% 29.89 in 3.0 mi East 15.0 mph 25.3 mph 0.03 in Rain Light Freezing Rain
6:18 AM 21.2 °F 8.3 °F 19.4 °F 93% 29.90 in 2.5 mi East 13.8 mph 20.7 mph 0.04 in Rain Light Freezing Rain
6:29 AM 21.2 °F 6.8 °F 19.4 °F 93% 29.88 in 3.0 mi East 17.3 mph 26.5 mph 0.05 in Rain Light Freezing Rain
6:36 AM 21.2 °F 7.3 °F 19.4 °F 93% 29.88 in 2.0 mi ESE 16.1 mph - 0.05 in Rain Light Freezing Rain
6:53 AM 23.0 °F 8.3 °F 21.0 °F 92% 29.89 in 2.5 mi East 19.6 mph 25.3 mph 0.06 in Snow Light Snow
7:05 AM 23.0 °F 9.6 °F 21.2 °F 93% 29.85 in 3.0 mi ESE 16.1 mph 24.2 mph 0.00 in   Overcast
7:15 AM 23.0 °F 10.6 °F 21.2 °F 93% 29.85 in 4.0 mi ESE 13.8 mph 21.9 mph 0.01 in Rain Light Freezing Rain
7:31 AM 24.8 °F 10.3 °F 21.2 °F 86% 29.82 in 2.0 mi East 20.7 mph 25.3 mph 0.03 in Rain Light Freezing Rain
7:39 AM 24.8 °F 12.4 °F 21.2 °F 86% 29.83 in 1.5 mi East 15.0 mph 26.5 mph 0.05 in Rain Light Freezing Rain
7:53 AM 24.1 °F 10.6 °F 19.9 °F 84% 29.85 in 1.8 mi East 17.3 mph 24.2 mph 0.08 in Rain Light Freezing Rain
8:00 AM 24.8 °F 14.0 °F 21.2 °F 86% 29.83 in 2.0 mi ESE 11.5 mph - 0.01 in Rain Light Freezing Rain
8:25 AM 24.8 °F 13.4 °F 21.2 °F 86% 29.82 in 1.8 mi East 12.7 mph - 0.06 in Rain Light Freezing Rain
8:36 AM 24.8 °F 14.6 °F 23.0 °F 93% 29.83 in 2.0 mi East 10.4 mph - 0.08 in Rain Light Freezing Rain
8:45 AM 24.8 °F 15.3 °F 23.0 °F 93% 29.83 in 1.0 mi East 9.2 mph - 0.08 in Snow Light Snow
8:53 AM 26.1 °F 14.5 °F 24.1 °F 92% 29.85 in 1.2 mi East 13.8 mph 20.7 mph 0.09 in   Overcast
8:59 AM 26.6 °F 16.2 °F 24.8 °F 93% 29.81 in 1.5 mi East 11.5 mph 20.7 mph 0.00 in Rain Light Freezing Rain
9:02 AM 26.6 °F 15.7 °F 24.8 °F 93% 29.81 in 1.8 mi East 12.7 mph - 0.00 in Snow Light Snow
9:11 AM 26.6 °F 15.7 °F 24.8 °F 93% 29.79 in 2.0 mi East 12.7 mph - 0.00 in Snow Light Snow
9:32 AM 26.6 °F 15.2 °F 24.8 °F 93% 29.79 in 3.0 mi East 13.8 mph - 0.01 in Rain Light Freezing Rain
9:53 AM 28.0 °F 18.1 °F 26.1 °F 92% 29.83 in 3.0 mi ESE 11.5 mph - 0.02 in Rain Light Freezing Rain
10:00 AM 28.4 °F 16.6 °F 26.6 °F 93% 29.78 in 2.0 mi ESE 16.1 mph - 0.00 in Rain Light Freezing Rain
10:15 AM 28.4 °F 16.6 °F 26.6 °F 93% 29.77 in 2.0 mi ESE 16.1 mph - 0.02 in Rain Light Freezing Rain
10:53 AM 28.0 °F 16.1 °F 27.0 °F 96% 29.78 in 2.5 mi ESE 16.1 mph 24.2 mph 0.05 in Rain Light Freezing Rain
11:00 AM 28.4 °F 15.8 °F 26.6 °F 93% 29.73 in 4.0 mi ESE 18.4 mph 21.9 mph 0.00 in Rain Light Freezing Rain
11:29 AM 28.4 °F 16.6 °F 26.6 °F 93% 29.71 in 8.0 mi ESE 16.1 mph - 0.00 in   Overcast
11:38 AM 28.4 °F 17.0 °F 26.6 °F 93% 29.70 in 7.0 mi ESE 15.0 mph - 0.00 in Rain Light Freezing Rain
11:53 AM 28.9 °F 16.1 °F 26.1 °F 89% 29.71 in 6.0 mi ESE 19.6 mph 23.0 mph 0.00 in Rain Light Freezing Rain
12:53 PM 28.9 °F 18.6 °F 28.0 °F 96% 29.65 in 4.0 mi ESE 12.7 mph - 0.03 in Rain Light Freezing Rain
1:53 PM 30.9 °F 21.7 °F 28.9 °F 92% 29.57 in 4.0 mi ESE 11.5 mph - 0.05 in Rain Light Freezing Rain
2:00 PM 30.2 °F 21.3 °F 28.4 °F 93% 29.54 in 4.0 mi ESE 10.4 mph - 0.00 in Rain Light Freezing Rain
2:10 PM 30.2 °F 21.3 °F 30.2 °F 100% 29.54 in 4.0 mi SE 10.4 mph - 0.01 in Rain Light Freezing Rain
2:45 PM 32.0 °F 24.8 °F 30.2 °F 93% 29.51 in 3.0 mi ESE 8.1 mph - 0.07 in Rain Rain
2:53 PM 32.0 °F 24.8 °F 30.9 °F 96% 29.53 in 3.0 mi ESE 8.1 mph - 0.08 in Rain Light Rain
3:15 PM 32.0 °F 26.4 °F 30.2 °F 93% 29.50 in 3.0 mi SE 5.8 mph - 0.03 in Rain Light Rain
3:39 PM 33.8 °F 28.6 °F 32.0 °F 93% 29.50 in 2.5 mi SE 5.8 mph - 0.06 in Rain Light Rain
3:53 PM 33.1 °F 26.9 °F 32.0 °F 96% 29.52 in 3.0 mi SE 6.9 mph - 0.08 in Rain Light Rain
4:00 PM 33.8 °F 28.6 °F 32.0 °F 93% 29.50 in 2.5 mi ESE 5.8 mph - 0.01 in Rain Light Rain
4:53 PM 33.1 °F 30.0 °F 32.0 °F 96% 29.52 in 2.5 mi SSW 3.5 mph - 0.10 in Rain Light Rain
5:23 PM 33.8 °F 29.6 °F 32.0 °F 93% 29.49 in 3.0 mi SSE 4.6 mph - 0.05 in Rain Light Rain
5:53 PM 34.0 °F 26.6 °F 33.1 °F 96% 29.54 in 4.0 mi WSW 9.2 mph - 0.06 in Rain Light Rain
6:41 PM 30.2 °F 19.8 °F 30.2 °F 100% 29.53 in 5.0 mi WSW 13.8 mph - 0.01 in Snow Light Snow
6:53 PM 30.0 °F 18.3 °F 27.0 °F 88% 29.56 in 4.0 mi West 17.3 mph 21.9 mph 0.01 in Snow Light Snow
7:15 PM 28.4 °F 17.5 °F 24.8 °F 86% 29.56 in 2.5 mi WSW 13.8 mph - 0.00 in Snow Light Snow
7:23 PM 26.6 °F 14.3 °F 24.8 °F 93% 29.57 in 1.5 mi WSW 16.1 mph - 0.00 in Snow Light Snow
7:39 PM 26.6 °F 16.2 °F 24.8 °F 93% 29.58 in 1.2 mi WSW 11.5 mph - 0.00 in Snow Light Snow
7:53 PM 25.0 °F 13.1 °F 23.0 °F 92% 29.62 in 1.8 mi WSW 13.8 mph 19.6 mph 0.00 in Snow Light Snow
7:59 PM 24.8 °F 12.4 °F 21.2 °F 86% 29.60 in 3.0 mi WSW 15.0 mph 21.9 mph 0.00 in Snow Light Snow
8:28 PM 23.0 °F 8.3 °F 19.4 °F 86% 29.61 in 7.0 mi West 19.6 mph 24.2 mph 0.00 in   Overcast
8:53 PM 23.0 °F 10.6 °F 19.0 °F 85% 29.65 in 10.0 mi WSW 13.8 mph - 0.00 in   Overcast
9:53 PM 19.9 °F 4.8 °F 12.9 °F 74% 29.68 in 9.0 mi WSW 18.4 mph 27.6 mph N/A   Overcast
10:25 PM 19.4 °F 5.5 °F 14.0 °F 80% 29.66 in 10.0 mi West 15.0 mph 24.2 mph N/A   Overcast
10:53 PM 19.0 °F 3.2 °F 14.0 °F 81% 29.70 in 5.0 mi West 19.6 mph 26.5 mph 0.00 in Snow Light Snow
11:53 PM 18.0 °F 3.1 °F 12.9 °F 81% 29.72 in 3.0 mi WSW 16.1 mph 24.2 mph 0.00 in Snow Light Snow